Regional Weather Roundup
Issued by NWS

Home | Current Version | Previous Version | Text Only | Print | Product List | Glossary Off
Versions: 1 2 3 4 5 6 7 8 9 10 11 12 13 14 15 16 17 18 19 20 21 22 23 24 25 26 27 28 29 30 31 32 33 34 35 36 37 38 39 40 41 42 43 44 45 46 47 48 49 50

000
ASUS43 KOAX 032310
RWRNE

WEATHER ROUNDUP FOR NEBRASKA
NATIONAL WEATHER SERVICE OMAHA NE
500 PM CST SAT DEC 03 2016

NOTES: SATELLITE DATA IS BEING USED TO AUGMENT CLOUD COVER ABOVE
       12000 FEET.
       "FAIR" INDICATES FEW OR NO CLOUDS BELOW 12,000 FEET WITH NO
       SIGNIFICANT WEATHER AND/OR OBSTRUCTIONS TO VISIBILITY.

  * THESE STATIONS DO NOT REPORT WEATHER SUCH AS RAIN...SNOW OR FOG.

NEZ001>004-019>022-054>056-040000-
NEBRASKA PANHANDLE

CITY           SKY/WX    TMP DP  RH WIND       PRES   REMARKS
SCOTTSBLUFF    MOCLDY    40  12  32 W21G28    29.96R WCI  30
ALLIANCE       CLOUDY    40  14  34 NW14      29.94R WCI  32
CHADRON        MOCLDY    36  15  42 NW6       29.95R WCI  31
KIMBALL        MOCLDY    37  16  42 NW17      29.96S WCI  27
SIDNEY         PTCLDY    37  13  37 NW14      29.96R WCI  28
$$

NEZ057>060-069>072-079>082-040000-
SOUTHWEST NEBRASKA

CITY           SKY/WX    TMP DP  RH WIND       PRES   REMARKS
NORTH PLATTE   CLEAR     39  29  67 S12       29.96F WCI  32
IMPERIAL       PTCLDY    41  26  55 S8        29.96S
LEXINGTON      CLOUDY    34  31  90 S15       30.03F WCI  24
MCCOOK         CLOUDY    37  31  78 S9        30.02R WCI  30
OGALLALA       CLOUDY    41  16  35 NW9       29.95R
$$

NEZ005>010-023>029-035>040-094-040000-
NORTH CENTRAL NEBRASKA

CITY           SKY/WX    TMP DP  RH WIND       PRES   REMARKS
VALENTINE      CLEAR     38  16  40 W17       29.91R WCI  28
AINSWORTH      CLEAR     42  16  35 SW9       29.91S
BROKEN BOW     CLOUDY    36  31  82 S14G26    30.00R WCI  27
O`NEILL        CLOUDY    37  32  82 S12G21    30.00F WCI  29
ORD            CLOUDY    36  30  79 S9        30.03S WCI  29
THEDFORD       CLEAR     44  15  30 W7        29.94R
$$

NEZ041-046>049-061>064-073>077-083>087-040000-
SOUTH CENTRAL NEBRASKA

CITY           SKY/WX    TMP DP  RH WIND       PRES   REMARKS
GRAND ISLAND   LGT SNOW  32  32 100 SE6       30.08F FOG     WCI  26
AURORA         LGT SNOW  32  32 100 SE5       30.09F WCI  27
HASTINGS       LGT SNOW  32  32 100 SE7       30.08F FOG     WCI  26
HEBRON         LGT SNOW  32  32  99 E6        30.09F WCI  27
HOLDREGE       CLOUDY    32  31  97 S5        30.05F WCI  28
KEARNEY *      CLOUDY    34  28  80 S7        30.06F WCI  28
YORK           LGT SNOW  32  32 100 SE7       30.10F WCI  26
$$

NEZ011>018-030>034-042>045-040000-
NORTHEAST NEBRASKA

CITY           SKY/WX    TMP DP  RH WIND       PRES   REMARKS
NORFOLK        CLOUDY    33  31  92 SE10      30.09F WCI  25
ALBION         CLOUDY    34  32  93 S9        30.08R WCI  26
BLAIR          LGT SNOW  33  32  97 SE7       30.14F WCI  27
FREMONT        LGT SNOW  32  32 100 E6        30.14F WCI  27
TEKAMAH        LGT SNOW  33  31  92 SE8       30.17F FOG     WCI  26
WAYNE          CLOUDY    33  32  97 S12       30.11S WCI  24
$$

NEZ050>053-065>068-078-088>093-040000-
SOUTHEAST NEBRASKA

CITY           SKY/WX    TMP DP  RH WIND       PRES   REMARKS
LINCOLN        LGT SNOW  33  32  96 SE5       30.14F VSB 1   WCI  29
OMAHA EPPLEY   LGT SNOW  33  29  85 SE6       30.17F VSB 3/4 WCI  28
BEATRICE       LGT SNOW  33  33  99 E5        30.12F WCI  29
FALLS CITY     CLOUDY    39  33  79 E7        30.13F WCI  34
NEBRASKA CITY  LGT RAIN  32  32  99 NE6       30.14F WCI  27
PLATTSMOUTH    LGT SNOW  33  31  94 NE6       30.14F VSB 1   WCI  27
$$

NEZ044-045-051>053-067-040000-
OMAHA AREA

CITY           SKY/WX    TMP DP  RH WIND       PRES   REMARKS
OMAHA EPPLEY   LGT SNOW  33  29  85 SE6       30.17F VSB 3/4 WCI  28
BLAIR          LGT SNOW  33  32  97 SE7       30.14F WCI  27
FREMONT        LGT SNOW  32  32 100 E6        30.14F WCI  27
MILLARD        LGT SNOW  33  32  95 CALM      30.15F
OFFUTT AFB     LGT SNOW  33  33 100 NE7       30.15F FOG     WCI  27
PLATTSMOUTH    LGT SNOW  33  31  94 NE6       30.14F VSB 1   WCI  27
WAHOO          LGT SNOW  33  32  98 SE7       30.14F WCI  26
$$




USA.gov is the U.S. government's official web portal to all federal, state and local government web resources and services.